Regional Weather Roundup
Issued by NWS Kansas City/Pleasant Hill, MO

Home | Current Version | Previous Version | Text Only | Print | Product List | Glossary On
Versions: 1 2 3 4 5 6 7 8 9 10 11 12 13 14 15 16 17 18 19 20 21 22 23 24 25 26 27 28 29 30 31 32 33 34 35 36 37 38 39 40 41 42 43 44 45 46 47 48 49 50
000
ASUS43 KEAX 030004
RWREAX

WEATHER ROUNDUP FOR EASTERN KANSAS AND NORTHWEST MISSOURI
NATIONAL WEATHER SERVICE KANSAS CITY/PLEASANT HILL MO
700 PM CDT TUE SEP 02 2014

KSZ040-057-103>105-MOZ028-029-037-043-030100-
...KANSAS CITY METROPOLITAN AREA...

CITY           SKY/WX    TMP DP  RH WIND       PRES   REMARKS
K.C. INTL      PTCLDY    78  68  71 SW5       29.94F
6HR MIN TEMP:  78; 6HR MAX TEMP:  82;

K.C. DOWNTOWN  CLEAR     82  66  58 VRB3      29.92F
6HR MIN TEMP:  80; 6HR MAX TEMP:  84;

LEES SUMMIT    CLEAR     79  70  74 CALM      29.95S
6HR MIN TEMP:  77; 6HR MAX TEMP:  82;

OLATHE - IXD   CLEAR     80  67  64 CALM      29.95S
6HR MIN TEMP:  75; 6HR MAX TEMP:  82;

OLATHE - OJC   CLEAR     78  69  73 S5        29.94F
6HR MIN TEMP:  75; 6HR MAX TEMP:  80;

LAWRENCE       CLEAR     81  69  67 E3        29.93F

$$

MOZ001>008-011>017-020>025-030>033-038>040-044>046-053-054-030100-
...NORTHERN AND CENTRAL MISSOURI...

CITY           SKY/WX    TMP DP  RH WIND       PRES   REMARKS
ST. JOSEPH     CLEAR     81  66  60 NE5       29.93S
6HR MIN TEMP:  80; 6HR MAX TEMP:  85;

MOSBY          CLEAR     81  64  57 CALM      29.93S
WHITEMAN AFB   NOT AVBL
CLINTON        CLEAR     79  72  78 CALM      29.96S
SEDALIA        PTCLDY    79  70  74 SW5       29.96S
6HR MIN TEMP:  74; 6HR MAX TEMP:  81;

WARSAW         NOT AVBL
MARSHALL       CLEAR     82  72  69 CALM      29.95S
CHILLICOTHE      N/A     81  67  62 CALM      29.95R
6HR MIN TEMP:  80; 6HR MAX TEMP:  85;

MOBERLY        CLEAR     81  64  57 CALM      29.95
KIRKSVILLE     CLEAR     79  65  62 CALM      29.95S
6HR MIN TEMP:  78; 6HR MAX TEMP:  84;


$$

MOZ041-047>049-056>058-063>065-088>090-097-030100-
...EASTERN AND SOUTHERN MISSOURI...

CITY           SKY/WX    TMP DP  RH WIND       PRES   REMARKS
ST. LOUIS INTL MOCLDY    80  67  64 NW3       29.95R
6HR MIN TEMP:  79; 6HR MAX TEMP:  84;

SPIRIT OF STL  PTCLDY    79  68  69 CALM      29.93S
COLUMBIA       CLEAR     80  69  69 W3        29.95F
JEFFERSON CITY PTCLDY    81  68  64 CALM      29.94S
MEXICO         CLEAR     81  70  69 CALM      29.94F
ROLLA          HAZE      76  68  76 W3        29.97R VSB 1/2
LEBANON        PTCLDY    79  66  65 N3        29.99S
OSAGE BEACH    MOCLDY    77  66  69 CALM      29.96F
SPRINGFIELD    PTCLDY    78  65  63 N7        29.96F
BRANSON        PTCLDY    79  68  69 CALM      30.00R
NEVADA         CLEAR     81  66  61 CALM      29.96S
JOPLIN         CLEAR     79  67  66 W3        29.96S
WEST PLAINS    PTCLDY    76  65  68 NE5       30.01R

$$

IAZ060-094-KSZ022-034>040-054-083-096-NEZ052-066-093-030100-
...KANSAS...SOUTHEAST NEBRASKA AND IOWA...

CITY           SKY/WX    TMP DP  RH WIND       PRES   REMARKS
TOPEKA         CLEAR     83  68  60 SE3       29.92F
6HR MIN TEMP:  80; 6HR MAX TEMP:  86;

MANHATTAN      CLEAR     84  67  56 S5        29.91S
EMPORIA        CLEAR     82  68  62 SE6       29.93S
CHANUTE        CLEAR     82  66  58 S8        29.94S
WICHITA        MOSUNNY   84  68  58 SE9       29.91F
OMAHA          PTCLDY    78  59  51 N6        29.91F
LINCOLN        SUNNY     81  58  45 CALM      29.93F
FALLS CITY     CLEAR     82  66  58 E5        29.92S
LAMONI         CLEAR     77  61  57 NW3       29.94S
DES MOINES     PTCLDY    78  59  51 W5        29.92S

$$



USA.gov is the U.S. government's official web portal to all federal, state and local government web resources and services.